Elmendorf AFB, AK

6:09 AM AKDT on September 19, 2017 (GMT -0800)
Elmendorf Air Force Base

Weather History for PAED - May, 2013

Change the Weather History Date:

Saturday, May 11, 2013

  Actual Average Record
Temperature  
Mean Temperature 49 °F -  
Max Temperature 57 °F 52 °F 73 °F (2005)
Min Temperature 43 °F 38 °F 29 °F (1964)
Degree Days  
Heating Degree Days 16    
Moisture  
Dew Point 35 °F    
Average Humidity 60    
Maximum Humidity 72    
Minimum Humidity 39    
Precipitation  
Precipitation 0.00 in - - ()
Sea Level Pressure  
Sea Level Pressure 29.74 in    
Wind  
Wind Speed 5 mph (NNE)    
Max Wind Speed 12 mph    
Max Gust Speed -    
Visibility 10 miles    
Events      
Averages and records for this station are not official NWS values.
T = Trace of Precipitation, MM = Missing Value Source: NWS Daily Summary

Daily Weather History Graph

Daily Weather History Graph

Search for Another Location

Airport or City:

Trip Planner

Search our weather history database for the weather conditions in past years. The results will help you decide how hot, cold, wet, or windy it might be!

Date:

Astronomy

May. 11, 2013 Rise Set
Actual Time 5:20 AM AKDT 10:31 PM AKDT
Civil Twilight 4:14 AM AKDT 11:39 PM AKDT
Nautical Twilight 2:27 AM AKDT 1:23 AM AKDT
Astronomical Twilight Sun does not set Sun does not set
Moon 6:26 AM AKDT (5/11) No Moon Set
Length of Visible Light 19h 24m
Length of Day
17h 10m
Waxing Crescent, 3% of the Moon is Illuminated
May 11
Waxing Crescent
May 17
First Quarter
May 24
Full
May 31
Last Quarter
Jun 8
New

Hourly Weather History & Observations

Time (AKDT) Temp. Windchill Dew Point Humidity Pressure Visibility Wind Dir Wind Speed Gust Speed Precip Events Conditions
12:55 AM 49.3 °F - 31.1 °F 50% 29.93 in 10.0 mi ENE 4.6 mph - N/A   Overcast
1:55 AM 46.6 °F - 31.8 °F 56% 29.92 in 10.0 mi NE 9.2 mph - N/A   Overcast
2:55 AM 45.0 °F - 32.2 °F 61% 29.91 in 10.0 mi Calm Calm - N/A   Mostly Cloudy
3:55 AM 45.7 °F 42.0 °F 32.5 °F 60% 29.89 in 10.0 mi ENE 6.9 mph - N/A   Mostly Cloudy
4:55 AM 45.0 °F 41.2 °F 33.3 °F 64% 29.88 in 10.0 mi East 6.9 mph - N/A   Mostly Cloudy
5:55 AM 43.9 °F 42.3 °F 33.8 °F 68% 29.86 in 10.0 mi East 3.5 mph - N/A   Partly Cloudy
6:55 AM 45.3 °F 44.0 °F 34.9 °F 67% 29.83 in 10.0 mi NE 3.5 mph - N/A   Partly Cloudy
7:55 AM 46.8 °F - 35.1 °F 64% 29.82 in 10.0 mi ENE 3.5 mph - N/A   Overcast
8:55 AM 46.2 °F 43.3 °F 34.9 °F 65% 29.80 in 10.0 mi NE 5.8 mph - N/A   Mostly Cloudy
9:55 AM 47.5 °F - 34.3 °F 60% 29.79 in 10.0 mi NNE 3.5 mph - N/A   Overcast
10:55 AM 48.7 °F - 33.3 °F 55% 29.77 in 10.0 mi NNE 4.6 mph - N/A   Overcast
11:55 AM 51.6 °F - 34.7 °F 52% 29.75 in 10.0 mi NNE 4.6 mph - N/A   Partly Cloudy
12:55 PM 53.1 °F - 33.8 °F 48% 29.73 in 10.0 mi Variable 5.8 mph - N/A   Mostly Cloudy
1:55 PM 55.9 °F - 31.1 °F 39% 29.70 in 10.0 mi NNE 5.8 mph - N/A   Mostly Cloudy
2:55 PM 55.9 °F - 35.4 °F 46% 29.68 in 10.0 mi NW 9.2 mph - N/A   Overcast
3:55 PM 53.6 °F - 36.1 °F 52% 29.65 in 10.0 mi WNW 9.2 mph - N/A   Overcast
4:55 PM 51.6 °F - 37.2 °F 58% 29.63 in 10.0 mi WNW 11.5 mph - N/A   Scattered Clouds
5:55 PM 48.9 °F - 36.5 °F 62% 29.61 in 10.0 mi WNW 10.4 mph - N/A   Partly Cloudy
6:55 PM 50.0 °F - 36.5 °F 60% 29.60 in 10.0 mi WNW 8.1 mph - N/A   Partly Cloudy
7:55 PM 49.8 °F - 38.8 °F 66% 29.59 in 10.0 mi WNW 8.1 mph - N/A   Mostly Cloudy
8:55 PM 49.6 °F - 39.2 °F 67% 29.58 in 10.0 mi Calm Calm - N/A   Scattered Clouds
9:55 PM 50.7 °F - 39.6 °F 66% 29.58 in 10.0 mi Calm Calm - N/A   Mostly Cloudy
10:55 PM 49.3 °F - 39.7 °F 70% 29.58 in 10.0 mi NNE 3.5 mph - N/A   Clear
11:55 PM 48.2 °F - 39.4 °F 72% 29.58 in 10.0 mi Calm Calm - N/A   Clear